Change the Weather History Date:

Friday, November 9, 2012

  Actual Average Record
Temperature  
Mean Temperature 61 °F 63 °F  
Max Temperature 76 °F 75 °F 85 °F (1950)
Min Temperature 46 °F 52 °F 26 °F (1991)
Degree Days  
Heating Degree Days 4 4  
Month to date heating degree days 19 28  
Since 1 July heating degree days 61 62  
Cooling Degree Days 0 2  
Month to date cooling degree days 32 21  
Year to date cooling degree days 3227 2766  
Growing Degree Days 10 (Base 50)    
Moisture  
Dew Point 51 °F    
Average Humidity 66    
Maximum Humidity 86    
Minimum Humidity 46    
Precipitation  
Precipitation 0.00 in 0.12 in 3.18 in (2000)
Month to date precipitation 1.35 0.91  
Year to date precipitation 47.92 51.35  
Sea Level Pressure  
Sea Level Pressure 30.19 in    
Wind  
Wind Speed 7 mph (SE)    
Max Wind Speed 16 mph    
Max Gust Speed 21 mph    
Visibility 10 miles    
Events      
T = Trace of Precipitation, MM = Missing Value Source: NWS Daily Summary

Daily Weather History Graph

Daily Weather History Graph

Search for Another Location

Airport or City:

Trip Planner

Search our weather history database for the weather conditions in past years. The results will help you decide how hot, cold, wet, or windy it might be!

Date:

Astronomy

Nov. 09, 2012 Rise Set
Actual Time 6:28 AM CST 5:14 PM CST
Civil Twilight 6:03 AM CST 5:39 PM CST
Nautical Twilight 5:34 AM CST 6:08 PM CST
Astronomical Twilight 5:06 AM CST 6:36 PM CST
Moon 1:47 AM CST (11/9) 2:10 PM CST (11/9)
Length of Visible Light 11h 36m
Length of Day
10h 46m
Waning Crescent, 23% of the Moon is Illuminated
Nov 9
Waning Crescent
Nov 13
New
Nov 20
First Quarter
Nov 28
Full
Dec 6
Last Quarter

Hourly Weather History & Observations

Time (CST) Temp. Dew Point Humidity Pressure Visibility Wind Dir Wind Speed Gust Speed Precip Events Conditions
12:53 AM 50.0 °F 44.1 °F 80% 30.19 in 10.0 mi SE 4.6 mph - N/A   Clear
1:53 AM 50.0 °F 45.0 °F 83% 30.19 in 10.0 mi SSE 4.6 mph - N/A   Clear
2:53 AM 48.9 °F 44.1 °F 83% 30.19 in 10.0 mi ESE 5.8 mph - N/A   Clear
3:53 AM 48.0 °F 44.1 °F 86% 30.19 in 10.0 mi Calm Calm - N/A   Clear
4:53 AM 48.9 °F 44.1 °F 83% 30.20 in 10.0 mi East 3.5 mph - N/A   Clear
5:53 AM 46.0 °F 42.1 °F 86% 30.22 in 10.0 mi Calm Calm - N/A   Clear
6:53 AM 48.0 °F 45.0 °F 89% 30.23 in 10.0 mi Calm Calm - N/A   Clear
7:53 AM 55.9 °F 48.9 °F 77% 30.23 in 10.0 mi ESE 8.1 mph - N/A   Clear
8:53 AM 63.0 °F 52.0 °F 67% 30.24 in 10.0 mi SE 8.1 mph - N/A   Clear
9:53 AM 68.0 °F 55.0 °F 63% 30.24 in 10.0 mi SE 8.1 mph - N/A   Clear
10:53 AM 72.0 °F 55.9 °F 57% 30.23 in 10.0 mi SSE 12.7 mph - N/A   Clear
11:53 AM 75.0 °F 54.0 °F 48% 30.21 in 10.0 mi SE 10.4 mph 16.1 mph N/A   Clear
12:53 PM 75.9 °F 54.0 °F 46% 30.19 in 10.0 mi South 10.4 mph - N/A   Clear
1:53 PM 75.0 °F 55.0 °F 50% 30.17 in 9.0 mi South 8.1 mph 16.1 mph N/A   Partly Cloudy
2:53 PM 73.9 °F 55.9 °F 53% 30.15 in 10.0 mi South 13.8 mph 20.7 mph N/A   Clear
3:53 PM 73.0 °F 55.9 °F 55% 30.15 in 10.0 mi South 11.5 mph - N/A   Clear
4:53 PM 70.0 °F 55.9 °F 61% 30.16 in 10.0 mi South 9.2 mph - N/A   Clear
5:53 PM 64.0 °F 55.9 °F 75% 30.16 in 10.0 mi SSE 4.6 mph - N/A   Clear
6:53 PM 61.0 °F 55.0 °F 81% 30.17 in 10.0 mi SSE 5.8 mph - N/A   Clear
7:53 PM 57.9 °F 54.0 °F 87% 30.19 in 10.0 mi SE 5.8 mph - N/A   Clear
8:53 PM 57.0 °F 53.1 °F 87% 30.19 in 10.0 mi SE 5.8 mph - N/A   Clear
9:53 PM 57.0 °F 53.1 °F 87% 30.19 in 10.0 mi SE 5.8 mph - N/A   Clear
10:53 PM 57.0 °F 53.1 °F 87% 30.19 in 10.0 mi SE 4.6 mph - N/A   Clear
11:53 PM 57.0 °F 53.1 °F 87% 30.18 in 10.0 mi ESE 4.6 mph - N/A   Clear